SCP
1 1 1 1 1 1 1 1 1 1 1 1 1 1 1 1 1 1 1 2 2 1 1 1 1 1 1 1 1 2 2 2 1 1 1 1 1 1
1 1 1 1 1 1 1 1 1 1 1 1 1 1 1 1 1 1 1 1 1 1 1 1 1 1 1 1 1 1 1 1 1 1 1 1 1 1
1 1 1 1 1 1 1 1 1 1 1 1 1 1 1 1 1 2 1 1 1 1 1 1 1 1 1 1 1 1 1 1 1 1 1 1 1 1
1 1 1 1 1 1 1 1 1 1 1 1 1 1 1 1 1 2 2 1 1 1 1 1 1 1 1 0 0 0 0 0 1 1 1 1 1 1
2 2 2 2 1 1 2 2 1 1 1 2 2 2 1 1 1 2 2 2 2 2 2 2 1 1 1 1 0 0 0 0 0 0 0 0 0 0
3 2 2 2 2 2 2 2 2 2 2 2 2 2 2 2 2 3 3 3 3 3 3 3 3 2 2 1 1 1 0 0 0 0 0 0 0 0
3 2 2 2 2 2 2 3 3 3 3 2 3 3 3 3 3 4 3 3 3 3 4 4 4 3 3 2 1 1 1 0 0 0 0 0 0 0
3 3 3 3 2 2 2 2 2 3 3 3 3 3 3 3 3 3 3 3 3 3 3 3 3 3 2 2 1 1 1 0 0 0 0 0 0 0
3 3 3 3 2 2 2 2 2 2 2 2 2 3 3 3 3 3 3 3 3 3 3 3 2 2 2 1 1 1 0 0 0 0 0 0 0 0
4 3 3 3 3 3 2 2 1 1 1 1 2 2 2 2 2 2 2 2 2 2 2 2 2 1 1 1 0 0 0 0 0 0 0 0 0 0
4 4 4 4 3 2 2 2 2 1 1 1 1 1 2 2 2 2 2 2 2 2 2 2 2 1 1 1 0 0 0 0 0 0 0 0 0 0
5 4 4 3 2 1 1 2 2 2 2 2 1 1 1 1 2 2 3 3 2 2 2 2 2 1 1 1 1 0 0 0 0 0 0 0 0 0
4 3 3 2 1 1 1 1 2 2 2 2 2 2 2 2 2 2 3 3 3 3 2 2 2 1 1 1 1 0 0 0 0 0 0 0 0 0
3 3 2 1 1 0 0 1 1 1 2 3 3 3 2 2 2 2 3 3 4 3 3 2 2 1 1 1 1 0 0 0 0 0 0 0 0 0
3 2 1 1 0 0 0 0 1 1 2 3 3 2 2 2 1 2 2 3 3 3 3 2 2 2 1 1 1 1 0 0 0 0 0 0 0 0
2 2 1 0 0 0 0 0 1 2 3 3 3 2 1 1 1 1 1 2 2 2 2 2 2 2 2 2 1 1 0 0 0 0 0 0 0 0
1 1 1 1 0 0 0 0 1 1 2 3 2 1 1 1 1 1 1 1 2 2 2 2 2 2 2 2 2 1 1 1 0 0 0 0 0 0
1 1 1 1 1 1 1 1 1 1 2 2 1 1 0 0 0 0 1 1 1 1 1 1 1 2 2 2 2 2 2 1 1 0 0 0 0 0
1 1 1 1 1 2 2 2 2 2 1 1 1 1 0 0 0 0 1 1 1 1 1 1 1 1 1 1 1 1 2 2 1 1 0 0 0 0
1 1 1 1 2 2 3 3 3 2 1 1 1 1 1 1 1 1 1 1 1 1 1 1 1 1 1 1 1 1 1 1 1 1 1 0 0 0
1 1 1 1 2 2 3 3 2 1 1 1 1 1 1 1 1 1 1 1 1 1 1 1 1 1 1 1 1 1 1 1 1 1 1 0 0 0
0 1 1 1 1 1 1 1 1 0 0 1 1 1 1 1 1 1 1 1 1 1 1 1 1 1 1 1 1 1 1 0 0 0 0 0 0 0
0 1 1 0 0 0 0 0 0 0 0 0 1 1 1 1 1 1 1 1 1 1 1 1 1 1 1 1 1 1 1 1 0 0 0 0 0 0
Wind_Speed
2 2 2 2 1 2 2 3 3 2 3 3 3 3 3 3 5 4 4 8 10 10 10 9 9 9 9 9 8 8 7 7 7 7 7 7 7 8
1 1 1 1 1 1 2 2 2 3 3 3 3 3 3 3 4 4 4 7 8 8 9 9 10 10 9 9 9 9 8 8 8 7 7 7 7 7
2 2 3 2 2 2 1 1 2 2 3 3 2 2 1 2 2 2 3 3 4 7 8 9 10 9 9 10 9 9 9 9 9 9 8 8 8 7
3 2 3 2 2 2 2 2 2 3 3 3 2 1 2 2 2 2 3 3 3 6 8 9 9 9 9 9 9 10 10 10 10 9 9 9 9 8
3 3 3 2 3 2 2 2 2 2 2 2 3 2 1 1 1 2 2 2 4 4 7 9 9 10 10 10 10 10 10 10 10 10 9 9 9 9
4 4 3 4 4 3 3 3 2 2 2 2 2 2 1 1 1 1 2 2 3 3 4 5 7 9 10 10 10 10 10 10 10 10 10 10 10 10
3 3 4 4 4 4 3 3 2 2 2 2 2 2 2 1 2 2 3 2 3 3 2 3 3 4 5 8 10 10 10 11 11 11 10 10 10 10
4 4 4 4 4 5 5 4 4 4 4 3 3 3 4 3 2 2 2 2 3 3 3 4 3 4 5 5 8 10 11 11 11 11 11 11 11 11
4 3 3 3 3 3 4 4 4 6 6 5 4 5 4 4 3 3 3 4 5 3 3 4 3 5 5 6 9 11 11 11 11 11 11 11 11 11
4 4 4 3 3 2 2 3 3 4 5 5 5 5 4 4 5 5 5 4 3 2 3 4 4 5 5 5 9 11 11 11 12 12 11 11 11 11
4 3 4 3 3 3 2 3 4 4 5 5 5 5 5 5 3 2 2 2 4 4 3 3 3 3 4 5 7 10 11 11 12 12 12 11 11 10
3 3 3 3 4 4 3 3 4 5 3 3 3 4 4 5 5 4 4 4 3 3 4 4 3 2 3 3 4 4 6 9 11 11 11 11 10 6
2 3 3 4 4 4 4 4 6 5 3 2 2 3 3 3 3 4 4 4 4 5 4 4 3 3 3 3 3 4 4 4 5 6 9 11 11 9
3 3 3 4 4 5 4 5 5 3 2 1 2 3 3 3 4 4 5 6 6 7 5 4 4 4 3 3 4 3 3 4 4 5 5 7 9 12
2 3 3 4 3 3 4 4 2 1 1 1 2 3 3 4 3 3 3 4 4 5 4 4 4 4 4 5 4 3 3 4 5 5 5 5 5 5
1 2 3 2 1 2 2 2 1 2 2 2 2 3 2 2 2 2 2 2 2 4 4 4 5 5 5 6 5 5 4 4 4 5 5 5 5 6
1 1 1 1 1 1 1 1 1 1 1 1 1 2 2 2 3 3 2 2 2 4 4 4 3 4 6 5 5 5 5 5 4 5 5 5 6 7
3 1 1 1 1 1 1 2 2 2 2 1 1 2 2 3 3 3 2 2 3 4 4 4 3 2 3 4 6 6 5 5 4 5 5 5 7 6
2 1 1 1 1 1 1 1 2 2 1 1 1 2 2 2 3 3 3 3 4 4 4 3 2 2 4 6 5 6 5 4 3 4 5 6 7 7
1 1 1 1 1 1 1 1 2 1 1 1 1 2 2 2 3 4 3 4 4 5 4 4 3 4 5 6 5 4 6 5 4 5 5 4 4 5
1 1 1 1 1 1 1 1 1 1 1 1 1 2 2 2 3 4 4 5 5 4 4 5 5 6 4 2 3 4 4 5 6 5 4 4 3 3
0 1 1 1 1 1 1 1 1 1 1 1 2 2 2 2 3 4 4 4 4 5 5 5 5 3 2 3 5 6 5 4 5 7 7 7 5 5
0 1 1 1 1 1 1 1 1 1 1 1 2 2 2 3 3 4 4 4 4 5 5 5 4 3 3 4 4 5 6 5 4 3 5 7 9 10
Wind_Direction
217 209 210 228 208 197 182 173 174 220 258 254 247 234 218 214 215 211 217 219 213 214 214 215 217 218 219 219 218 219 222 227 232 231 228 230 231 232
216 211 234 246 241 221 204 198 183 186 233 248 240 248 223 221 212 208 218 218 218 216 214 215 219 219 218 218 219 219 219 221 225 226 226 230 233 232
237 223 240 237 242 242 219 207 205 185 225 263 253 262 229 223 226 219 219 215 223 220 218 217 218 218 219 222 220 221 221 222 224 227 230 230 230 230
235 235 250 248 247 247 230 227 224 210 206 248 263 245 233 224 213 218 228 221 225 224 221 221 221 221 221 223 224 224 223 223 224 227 230 230 231 232
223 224 240 241 252 256 246 244 241 233 208 215 245 240 245 237 215 248 240 238 230 230 224 225 226 228 227 227 226 225 224 224 225 226 228 229 231 233
225 223 227 225 236 244 245 245 234 232 226 221 240 244 241 238 189 231 262 253 246 238 229 226 229 228 231 232 228 226 226 226 227 226 227 227 228 229
238 235 232 228 231 231 236 236 225 221 225 225 238 242 243 227 226 216 234 253 258 233 230 234 227 233 233 233 231 227 226 227 227 227 227 228 228 227
238 244 247 242 248 247 246 236 214 213 219 221 229 235 244 236 231 220 219 226 258 233 208 245 215 235 238 229 231 228 226 227 228 228 228 228 227 227
225 231 250 256 245 251 260 260 250 240 218 211 223 236 232 223 210 224 225 225 236 221 193 242 228 240 242 238 229 228 228 229 229 228 228 227 227 226
224 217 224 246 249 234 250 265 267 260 242 227 226 237 233 219 204 210 220 238 262 239 187 228 233 238 245 241 234 230 230 229 229 228 228 228 228 228
239 230 220 224 240 220 215 248 272 278 270 247 236 242 246 240 221 187 208 226 264 257 208 213 234 244 249 245 242 234 233 232 230 228 228 227 228 225
248 247 234 229 241 216 205 223 255 264 275 288 277 277 263 255 237 209 206 219 242 254 219 202 226 208 263 255 239 232 232 236 233 230 228 227 221 215
237 247 252 255 254 241 225 225 245 252 249 244 258 270 272 267 256 237 222 216 229 243 225 193 213 208 219 257 258 234 225 228 224 232 231 227 218 208
228 241 255 266 264 256 244 254 261 255 242 247 260 264 263 265 261 250 243 238 235 241 234 202 215 211 214 238 255 239 225 226 218 225 226 222 222 222
241 262 280 287 274 259 263 271 259 229 219 242 261 268 265 264 267 271 273 265 266 261 249 226 224 225 215 227 241 233 231 230 216 218 218 212 210 207
292 304 311 312 291 285 297 280 252 226 216 241 262 274 290 298 291 284 278 281 284 288 280 254 238 227 235 240 233 238 224 223 217 214 213 216 215 211
177 17 357 347 328 318 308 298 289 295 273 282 284 298 306 309 304 304 288 283 271 281 292 295 274 249 235 232 242 242 235 232 226 208 206 222 225 218
121 134 258 269 267 272 288 299 295 285 275 269 275 279 288 293 301 312 304 282 276 278 281 284 294 302 294 269 232 236 239 236 232 214 204 216 234 228
111 198 247 260 261 267 265 260 265 272 274 277 286 296 300 304 306 305 304 295 286 281 280 282 278 264 271 274 270 231 233 245 235 223 218 216 229 232
111 241 260 262 253 250 256 263 277 300 316 316 306 305 305 306 307 302 297 291 288 285 284 283 268 256 253 262 272 277 243 235 237 243 242 236 241 246
248 260 266 276 287 286 273 272 271 302 314 313 305 292 288 290 296 298 298 298 292 289 285 277 270 270 264 277 282 281 276 244 233 236 234 235 246 240
324 322 337 1 352 348 344 350 1 354 340 332 314 302 293 285 284 286 289 293 289 282 282 284 294 297 278 265 271 276 284 292 275 261 242 217 207 219
5 10 7 11 15 4 354 13 19 342 336 318 304 299 297 294 286 280 279 280 286 291 293 294 300 296 277 266 268 276 284 288 291 288 277 260 241 244